AWC955 SBCY-SBEG

Flight info

Callsign AWC955
Flight time N/A
Altitude 38000
Route EQUAL UL201 ARPAR DCT IRUMO
Aircraft A320/M-SDE3FGHIRWY/LB1

Departure

Time 2026-05-04 01:00
Airport Várzea Grande–Marechal Rondon International Airport (SBCY)

Arrival

Time N/A
Airport Eduardo Gomes International Airport (SBEG)
Time Latitude Longitude Altitude Speed Heading
2026-05-04 00:46 -15.65044 -56.11984 597 ft 0 kts 243°
2026-05-04 00:53 -15.65035 -56.11960 597 ft 4 kts 265°
2026-05-04 00:53 -15.65039 -56.11936 597 ft 4 kts 323°
2026-05-04 00:53 -15.65044 -56.11932 597 ft 1 kts 333°
2026-05-04 00:54 -15.65054 -56.11927 597 ft 2 kts 333°
2026-05-04 00:55 -15.65068 -56.11920 582 ft 2 kts 333°
2026-05-04 00:55 -15.65081 -56.11913 599 ft 2 kts 333°
2026-05-04 00:55 -15.65095 -56.11905 597 ft 2 kts 333°
2026-05-04 00:55 -15.65109 -56.11898 597 ft 2 kts 333°
2026-05-04 00:56 -15.65123 -56.11891 597 ft 2 kts 333°
2026-05-04 00:56 -15.65126 -56.11889 597 ft 0 kts 333°
2026-05-04 00:57 -15.65112 -56.11894 597 ft 9 kts 348°
2026-05-04 00:57 -15.65055 -56.11823 598 ft 14 kts 48°
2026-05-04 00:57 -15.64930 -56.11862 596 ft 27 kts 332°
2026-05-04 00:58 -15.64723 -56.11974 596 ft 38 kts 333°
2026-05-04 00:58 -15.64489 -56.12101 596 ft 30 kts 332°
2026-05-04 00:58 -15.64409 -56.12175 597 ft 6 kts 351°
2026-05-04 00:58 -15.64404 -56.12150 598 ft 5 kts 132°
2026-05-04 00:59 -15.64432 -56.12127 597 ft 0 kts 153°
2026-05-04 00:59 -15.64440 -56.12123 596 ft 8 kts 153°
2026-05-04 00:59 -15.64840 -56.11911 596 ft 122 kts 153°
2026-05-04 00:59 -15.65801 -56.11401 1035 ft 173 kts 153°
2026-05-04 01:00 -15.66982 -56.10940 2140 ft 189 kts 176°
2026-05-04 01:00 -15.68296 -56.11358 3245 ft 216 kts 208°
2026-05-04 01:00 -15.69602 -56.12296 4090 ft 240 kts 216°
2026-05-04 01:00 -15.70921 -56.13393 4953 ft 253 kts 218°
2026-05-04 01:01 -15.72310 -56.14587 5668 ft 264 kts 218°
2026-05-04 01:01 -15.73733 -56.15802 5888 ft 265 kts 218°
2026-05-04 01:01 -15.75125 -56.17058 5963 ft 266 kts 229°
2026-05-04 01:01 -15.76120 -56.18739 5975 ft 282 kts 242°
2026-05-04 01:02 -15.77033 -56.20562 5970 ft 287 kts 242°
2026-05-04 01:02 -15.77959 -56.22405 5972 ft 288 kts 242°
2026-05-04 01:02 -15.78680 -56.24344 5964 ft 288 kts 262°
2026-05-04 01:02 -15.78573 -56.26393 6002 ft 289 kts 289°
2026-05-04 01:03 -15.77589 -56.28237 6792 ft 293 kts 309°
2026-05-04 01:03 -15.76384 -56.29936 7984 ft 294 kts 308°
2026-05-04 01:03 -15.75066 -56.31582 8974 ft 299 kts 319°
2026-05-04 01:03 -15.73394 -56.32872 9903 ft 303 kts 334°
2026-05-04 01:04 -15.71396 -56.33702 10425 ft 320 kts 348°
2026-05-04 01:04 -15.69175 -56.34274 10888 ft 336 kts 348°
2026-05-04 01:04 -15.66877 -56.34858 11615 ft 343 kts 348°
2026-05-04 01:04 -15.64539 -56.35457 12414 ft 348 kts 348°
2026-05-04 01:05 -15.62211 -56.36058 13190 ft 352 kts 348°
2026-05-04 01:05 -15.59818 -56.36682 13948 ft 357 kts 347°
2026-05-04 01:05 -15.57400 -56.37319 14648 ft 361 kts 347°
2026-05-04 01:05 -15.54934 -56.37890 15335 ft 364 kts 354°
2026-05-04 01:06 -15.52397 -56.37993 16023 ft 367 kts
2026-05-04 01:06 -15.49860 -56.37646 16714 ft 370 kts 10°
2026-05-04 01:06 -15.47309 -56.37243 17412 ft 374 kts 10°
2026-05-04 01:06 -15.44724 -56.36837 18106 ft 378 kts 10°
2026-05-04 01:07 -15.42099 -56.36428 18726 ft 382 kts
2026-05-04 01:07 -15.39456 -56.36021 19332 ft 386 kts
2026-05-04 01:07 -15.36791 -56.35613 19959 ft 389 kts
2026-05-04 01:07 -15.34099 -56.35201 20614 ft 393 kts
2026-05-04 01:08 -15.31386 -56.34782 21248 ft 396 kts
2026-05-04 01:08 -15.28646 -56.34360 21889 ft 400 kts
2026-05-04 01:08 -15.25881 -56.33935 22525 ft 403 kts
2026-05-04 01:08 -15.23096 -56.33506 23164 ft 407 kts
2026-05-04 01:09 -15.20290 -56.33073 23757 ft 410 kts
2026-05-04 01:09 -15.17485 -56.32641 24259 ft 414 kts
2026-05-04 01:09 -15.14623 -56.32201 24752 ft 418 kts
2026-05-04 01:09 -15.11734 -56.31760 25248 ft 421 kts
2026-05-04 01:10 -15.08816 -56.31314 25738 ft 425 kts
2026-05-04 01:10 -15.05881 -56.30862 26219 ft 428 kts
2026-05-04 01:10 -15.02925 -56.30407 26690 ft 432 kts
2026-05-04 01:10 -14.99944 -56.29948 27144 ft 435 kts
2026-05-04 01:11 -14.96939 -56.29483 27589 ft 438 kts
2026-05-04 01:11 -14.93903 -56.29013 28031 ft 442 kts
2026-05-04 01:11 -14.90853 -56.28544 28462 ft 445 kts
2026-05-04 01:11 -14.87782 -56.28073 28900 ft 449 kts
2026-05-04 01:12 -14.84679 -56.27598 29339 ft 452 kts
2026-05-04 01:12 -14.81565 -56.27123 29778 ft 456 kts
2026-05-04 01:12 -14.78411 -56.26642 30191 ft 459 kts
2026-05-04 01:12 -14.75238 -56.26155 30581 ft 462 kts
2026-05-04 01:13 -14.72050 -56.25665 30967 ft 465 kts
2026-05-04 01:13 -14.68881 -56.25180 31351 ft 467 kts
2026-05-04 01:13 -14.65659 -56.24686 31735 ft 470 kts
2026-05-04 01:13 -14.62418 -56.24188 32121 ft 472 kts
2026-05-04 01:14 -14.59174 -56.23691 32660 ft 470 kts
2026-05-04 01:14 -14.55947 -56.23196 33239 ft 469 kts
2026-05-04 01:14 -14.52724 -56.22702 33821 ft 467 kts
2026-05-04 01:14 -14.49508 -56.22212 34351 ft 466 kts
2026-05-04 01:15 -14.46308 -56.21728 34864 ft 464 kts
2026-05-04 01:15 -14.43123 -56.21243 35387 ft 462 kts
2026-05-04 01:15 -14.39950 -56.20756 35919 ft 460 kts
2026-05-04 01:15 -14.36785 -56.20269 36440 ft 458 kts
2026-05-04 01:16 -14.33633 -56.19786 36956 ft 457 kts
2026-05-04 01:16 -14.30504 -56.19307 37488 ft 455 kts
2026-05-04 01:16 -14.27373 -56.18832 37884 ft 454 kts
2026-05-04 01:17 -14.21194 -56.17901 37990 ft 450 kts
2026-05-04 01:17 -14.15017 -56.16972 37989 ft 448 kts
2026-05-04 01:18 -14.08854 -56.16036 37989 ft 448 kts
2026-05-04 01:18 -14.02692 -56.15091 37988 ft 448 kts
2026-05-04 01:19 -13.96540 -56.14147 37989 ft 448 kts
2026-05-04 01:19 -13.90374 -56.13213 37989 ft 448 kts
2026-05-04 01:20 -13.84204 -56.12276 37993 ft 448 kts
2026-05-04 01:20 -13.78036 -56.12269 37993 ft 443 kts 346°
2026-05-04 01:20 -13.75098 -56.13177 37994 ft 441 kts 335°
2026-05-04 01:21 -13.72432 -56.14614 37992 ft 438 kts 325°
2026-05-04 01:21 -13.67877 -56.18734 37988 ft 437 kts 314°
2026-05-04 01:22 -13.63518 -56.23093 37980 ft 437 kts 315°
2026-05-04 01:22 -13.59151 -56.27451 37979 ft 438 kts 315°
2026-05-04 01:23 -13.57670 -56.28924 37980 ft 438 kts 315°